Regional Weather Roundup
Issued by NWS

Home | Current Version | Previous Version | Graphics & Text | Print | Product List | Glossary Off
Versions: 1 2 3 4 5 6 7 8 9 10 11 12 13 14 15 16 17 18 19 20 21 22 23 24 25 26 27 28 29 30 31 32 33 34 35 36 37 38 39 40 41 42 43 44 45 46 47 48 49 50

000
ASUS43 KMKX 061300
RWRWI

WISCONSIN REGIONAL WEATHER ROUNDUP
NATIONAL WEATHER SERVICE MILWAUKEE/SULLIVAN WI
800 AM CDT MON JUL 06 2015

NOTE: "FAIR" INDICATES FEW OR NO CLOUDS BELOW 12,000 FEET WITH NO
SIGNIFICANT WEATHER AND/OR OBSTRUCTIONS TO VISIBILITY.

WIZ001-002-006>008-014>016-023>028-061400-
NORTHWEST WISCONSIN

CITY           SKY/WX    TMP DP  RH WIND       PRES   REMARKS
SUPERIOR ARPT  NOT AVBL
ASHLAND        NOT AVBL
HAYWARD        NOT AVBL
SIREN          NOT AVBL
CUMBERLAND     NOT AVBL
RICE LAKE      NOT AVBL
CHETEK         NOT AVBL
LADYSMITH      NOT AVBL
EAU CLAIRE     NOT AVBL
MENOMONIE      NOT AVBL
NEW RICHMOND   NOT AVBL
OSCEOLA        NOT AVBL
$$

WIZ003>005-009-010-017-018-061400-
NORTH CENTRAL WISCONSIN

CITY           SKY/WX    TMP DP  RH WIND       PRES   REMARKS
MANITOWISH WTR NOT AVBL
ARBOR VITAE    NOT AVBL
WOODRUFF       NOT AVBL
RHINELANDER    NOT AVBL
EAGLE RIVER    NOT AVBL
LAND O LAKES   NOT AVBL
PHILLIPS       RAIN      66  66 100 SW6       29.88R VSB 1/2
TOMAHAWK       RAIN      66  64  91 CALM      29.86F
MEDFORD        NOT AVBL
MERRILL        NOT AVBL
$$

WIZ029-030-035-036-043>047-061400-
CENTRAL WISCONSIN

CITY           SKY/WX    TMP DP  RH WIND       PRES   REMARKS
WAUSAU         NOT AVBL
MOSINEE        NOT AVBL
MARSHFIELD     NOT AVBL
STEVENS POINT  NOT AVBL
WAUPACA        CLOUDY    69  67  93 SE5       29.89F FOG
WAUTOMA        NOT AVBL
WISC RAPIDS    NOT AVBL
CAMP DOUGLAS   NOT AVBL
$$

WIZ011>013-019>022-031-037>040-048>050-061400-
NORTHEAST WISCONSIN

CITY           SKY/WX    TMP DP  RH WIND       PRES   REMARKS
ANTIGO         NOT AVBL
SHAWANO        CLOUDY    69  64  84 S3        29.89F
OCONTO         CLOUDY    70  69  98 S7        29.89F
STURGEON BAY   CLOUDY    66  61  82 S10       29.94F
GREEN BAY      NOT AVBL
MANITOWOC      NOT AVBL
APPLETON       NOT AVBL
CLINTONVILLE   CLOUDY    68  63  83 S7        29.89S FOG
OSHKOSH        NOT AVBL
$$

WIZ032>034-041-042-053>061-061400-
SOUTHWEST WISCONSIN

CITY           SKY/WX    TMP DP  RH WIND       PRES   REMARKS
LA CROSSE      LGT RAIN  72  69  90 SW5       29.83S FOG
SPARTA         NOT AVBL
VIROQUA        NOT AVBL
BOSCOBEL       CLOUDY    73  67  81 SW8       29.87R HAZE
PRAIRIE DU CHI NOT AVBL
PLATTEVILLE    NOT AVBL
$$

WIZ056-057-062-063-064-067-068-061400-
SOUTH CENTRAL WISCONSIN

CITY           SKY/WX    TMP DP  RH WIND       PRES   REMARKS
REEDSBURG      CLOUDY    70  66  87 S9        29.87S
BARABOO/DELLS  NOT AVBL
LONE ROCK      NOT AVBL
MINERAL POINT  NOT AVBL
MADISON        NOT AVBL
MIDDLETON      CLOUDY    71  66  85 S8        29.91F
WATERTOWN      CLOUDY    68  68 100 S5        29.92F FOG
MONROE         CLOUDY    68  64  88 S12       29.92F FOG
JANESVILLE     NOT AVBL
$$

WIZ051-052-058>065-066-070>072-061400-
SOUTHEAST WISCONSIN

CITY           SKY/WX    TMP DP  RH WIND       PRES   REMARKS
MILWAUKEE      NOT AVBL
WAUKESHA       NOT AVBL
MILWAUKEE/TIMM NOT AVBL
RACINE         NOT AVBL
BURLINGTON     PTSUNNY   66  64  93 S3        29.96F FOG
KENOSHA        NOT AVBL
FOND DU LAC    NOT AVBL
SHEBOYGAN      NOT AVBL
WEST BEND      NOT AVBL
JUNEAU         CLOUDY    68  64  88 SE8       29.94S FOG
$$

LSZ147-162-061400-
LAKE SUPERIOR

STATION/POSITION TIME  TEMP    WIND        PRES    WAVE
                       AIR SEA DIR/SP/G            HT/PER
                 (UTC) (F)     (DEG/KT/KT) (MB)    (FT/S)
W MID LAKE BUOY  1150   49 39  240/  6/  8 1010.6R   1/ 4
DEVILS ISLAND    1200   64     300/ 11/ 12 1010.7R
PORT WING        1240   64      30/  9/ 14 1011.2R
SAXON HARBOR     1200   66        CALM     1010.5R
$$

LMZ867-665-643>646-061400-
LAKE MICHIGAN

STATION/POSITION TIME  TEMP    WIND        PRES    WAVE
                       AIR SEA DIR/SP/G            HT/PER
                 (UTC) (F)     (DEG/KT/KT) (MB)    (FT/S)
CHAMBERS ISLAND  1200   68     160/  6/ 10 1012.9F
N MID LAKE BUOY  1150   58 55  200/ 14/ 17 1013.7F   3/ 4
NORTHPORT PIER   1200   65     160/  7/  9 1013.2F
SISTER BAY       1214   67     180/ 14/ 17   N/A
ALGOMA LAKESHORE 1211             CALM       N/A
KEWAUNEE LAKESHO 1200   60     190/  7/  9 1013.6R
SHEBOYGAN LAKESH 1200   61     170/ 14/ 15 1014.6F
PORT WASHINGTON  1200   64     190/  3/  5 1015.2F
ATWATER BUOY     1200   63 60  150/  8/ 10 1016.1F
MILWAUKEE LAKESH 1200   64     150/  7/  7   N/A
KENOSHA   LAKESH 1200   64     170/  8/ 10 1015.2S
$$

TC  - TEMPERATURE IN CELSIUS
VSB - VISIBILITY IN STATUTE MILES
WCI - WIND CHILL INDEX
HX  - HEAT INDEX



USA.gov is the U.S. government's official web portal to all federal, state and local government web resources and services.